Wind_Speed
10 10 10 11 12 12 12 12 12 12 12 12 12 12 12 11 12 11 11 11 11 10 10 10 10 10 10 10 10 10 10 10 9 9 9 9 9 9 9 9 9 8 8
9 9 10 11 11 12 12 12 11 11 11 12 12 12 12 11 11 11 11 11 11 10 10 10 9 9 10 10 10 9 10 10 9 9 9 9 9 9 9 9 9 9 8
9 9 10 11 11 12 12 12 11 11 12 12 12 12 11 11 11 11 11 11 11 10 10 9 9 8 9 9 9 9 9 10 9 9 9 9 9 9 8 8 8 8 8
8 9 10 11 11 12 12 12 12 12 12 12 11 12 11 11 11 11 10 10 10 10 9 9 8 8 8 9 9 8 9 9 9 9 9 10 9 9 8 8 8 8 8
8 9 10 10 11 11 11 11 11 11 11 11 11 11 11 11 10 10 10 10 10 10 9 8 8 8 8 8 8 8 8 9 8 9 9 9 9 9 8 8 8 8 8
9 9 10 10 10 11 11 11 11 11 11 11 11 11 11 10 10 10 10 9 9 9 8 8 7 7 7 7 7 7 8 8 8 8 8 8 8 8 8 8 8 8 8
9 10 10 10 10 10 10 10 10 10 10 10 10 10 10 9 9 9 9 9 9 9 8 8 8 8 8 8 7 7 7 7 8 8 8 8 8 8 7 7 7 7 7
9 9 10 10 10 9 9 9 9 9 9 9 9 9 9 9 9 9 9 8 8 9 8 8 8 8 8 8 8 8 8 7 7 7 7 7 7 7 6 6 6 6 6
10 10 9 9 8 8 8 8 7 7 8 8 8 8 8 9 8 9 8 8 8 8 8 8 8 8 8 8 8 8 8 7 7 7 7 7 6 6 5 5 5 5 5
9 9 8 8 7 7 7 6 7 7 7 7 8 7 8 7 8 8 7 7 7 8 8 8 8 8 8 8 8 7 7 7 7 7 6 6 6 5 5 5 5 5 4
9 9 8 7 6 7 6 6 6 6 6 7 7 7 7 7 7 7 6 6 7 7 7 8 7 8 8 7 7 7 6 6 7 7 7 6 6 5 4 4 4 4 4
9 8 7 6 6 6 6 6 6 6 6 6 6 6 6 6 6 6 6 6 6 6 6 7 7 7 7 7 6 6 6 6 6 6 6 6 5 4 4 4 3 3 3
10 8 7 6 5 5 6 5 5 5 5 5 5 5 4 4 5 5 5 5 6 6 6 6 6 6 6 6 6 5 5 5 5 5 5 5 4 4 3 3 3 2 2
11 10 8 7 5 6 5 5 5 5 4 4 4 4 4 4 4 4 5 5 5 5 5 5 5 5 5 6 5 5 4 4 4 4 4 4 3 3 3 2 2 1 1
11 10 8 7 6 6 5 5 5 5 3 3 3 3 4 4 4 4 4 4 4 4 4 4 4 4 4 4 4 4 3 3 3 2 2 2 2 2 2 2 1 1 1
11 10 9 8 6 6 5 4 4 4 4 4 3 3 3 3 2 2 3 3 3 4 3 3 3 3 3 3 2 2 2 2 1 1 1 1 1 1 2 2 2 2 2
11 10 9 8 6 5 4 4 4 3 4 4 4 3 2 2 1 1 1 1 2 3 2 2 2 2 2 1 1 1 1 1 1 1 1 2 3 3 3 3 3 3 3
11 10 9 8 7 6 4 4 3 3 3 3 3 3 3 2 1 0 1 1 0 1 1 1 1 1 1 0 1 1 2 2 2 2 3 3 3 4 4 4 4 5 5
10 10 9 7 6 5 4 3 3 2 2 2 2 2 2 2 1 1 1 2 1 1 1 1 0 1 1 1 2 2 3 3 4 4 4 4 4 5 6 6 6 6 7
9 8 8 7 6 4 4 3 3 3 3 3 2 2 1 1 1 2 2 3 3 3 2 2 3 3 3 3 4 4 5 5 6 6 6 6 7 7 7 7 8 8 9
8 7 7 7 6 4 3 3 4 4 3 3 3 3 3 3 3 3 4 4 5 5 4 4 5 5 6 6 6 7 7 7 8 8 8 8 8 8 9 9 9 10 10
8 7 6 7 6 4 3 3 4 4 4 3 4 4 4 4 4 4 5 5 6 6 6 6 7 8 8 8 9 9 10 10 10 10 10 10 10 10 10 11 11 12 12
7 6 6 7 7 6 4 4 4 5 5 4 4 5 5 5 5 6 7 7 8 8 8 8 9 9 10 10 10 10 11 12 12 12 12 12 12 13 12 12 13 13 13
7 7 6 7 7 7 6 5 5 5 6 5 5 5 5 6 6 7 8 9 9 10 10 10 10 11 11 12 12 12 12 13 13 13 14 14 14 14 14 14 14 15 15
8 8 7 7 7 7 6 6 6 7 7 7 6 6 6 7 7 8 8 9 10 11 12 12 13 13 13 13 13 14 14 14 15 15 16 16 16 16 16 16 16 17 17
9 10 8 7 7 6 6 6 7 7 8 8 9 8 8 8 8 8 9 10 11 11 12 14 15 15 15 15 16 16 16 15 15 16 17 17 17 17 17 18 18 19 19
Wind_Direction
64 68 70 75 75 77 74 76 77 73 67 66 69 67 70 74 71 75 75 77 79 81 85 83 83 82 85 87 88 88 89 90 95 101 106 105 105 105 107 106 106 107 108
65 71 74 74 73 74 74 73 74 71 65 64 65 63 64 67 71 72 73 75 78 78 80 82 84 86 87 87 87 89 91 94 95 101 103 103 103 104 105 107 108 109 107
64 70 74 74 75 75 74 74 71 68 62 62 60 58 60 63 66 71 73 75 75 75 76 78 83 85 86 86 86 86 88 93 96 97 99 98 99 101 104 108 111 111 108
65 71 72 74 76 75 74 73 70 67 63 61 60 60 61 64 66 69 73 74 73 75 75 77 79 83 84 83 84 84 85 89 91 92 94 96 97 98 101 105 107 109 109
63 69 72 74 75 75 74 72 69 66 63 61 62 62 64 67 66 67 68 70 68 70 71 73 79 85 84 83 83 82 88 89 90 91 94 95 95 97 96 98 102 105 104
63 69 72 74 77 76 75 75 71 67 64 63 63 63 64 67 66 65 65 66 65 65 68 72 79 85 86 84 83 85 90 91 92 92 94 94 93 93 93 94 97 99 96
62 68 71 74 76 75 74 73 72 70 66 64 65 65 65 67 67 65 62 63 65 65 67 73 77 85 86 86 88 89 90 91 90 91 91 92 91 90 90 92 94 94 96
58 66 73 76 76 75 71 68 70 71 68 66 66 66 64 65 66 65 62 62 66 67 70 73 78 84 89 88 89 90 90 91 90 90 89 89 89 88 88 90 92 94 97
54 62 70 74 73 72 72 67 66 68 69 67 68 68 65 66 67 65 62 63 67 70 71 75 78 82 87 91 92 92 90 88 89 87 87 89 88 86 84 86 83 86 94
50 57 64 70 70 69 72 67 63 65 71 67 68 68 68 67 68 66 63 61 63 68 71 74 77 81 85 89 90 89 88 87 87 85 86 86 84 80 81 79 76 78 87
51 56 60 70 73 71 71 71 67 68 73 70 68 67 70 69 65 63 62 61 63 65 70 73 77 79 83 86 87 85 82 84 85 81 80 82 81 78 77 73 71 69 77
46 52 58 67 76 76 74 71 69 69 78 77 71 71 73 70 66 63 64 65 63 65 72 75 77 79 82 84 83 84 83 81 82 80 79 82 81 77 72 68 69 69 75
44 47 51 57 74 82 79 78 78 79 84 80 73 66 72 72 68 67 69 69 69 72 77 79 80 81 84 85 84 85 86 82 80 77 76 79 78 73 67 64 66 70 77
41 46 50 52 65 84 84 80 80 88 89 82 70 63 73 73 70 73 73 71 72 76 81 87 86 85 85 85 86 86 85 84 86 80 77 76 75 65 58 54 52 53 49
38 40 44 48 50 72 78 75 72 75 82 80 72 63 69 75 81 85 79 71 78 80 82 85 83 82 82 87 87 85 81 83 90 84 85 79 75 47 27 22 14 348 323
36 39 43 47 49 62 74 73 68 60 56 62 66 64 67 73 79 90 85 78 84 84 84 80 72 72 79 85 83 80 71 71 78 61 26 350 335 332 344 339 334 321 306
33 37 39 39 41 52 58 62 57 55 52 48 53 57 59 56 64 133 127 98 91 85 88 85 78 69 67 69 72 49 26 11 342 316 319 308 293 296 306 305 309 309 301
30 31 33 33 34 37 41 47 51 48 38 36 36 42 49 50 58 173 214 228 338 53 78 88 107 77 23 307 308 326 336 326 307 303 301 300 288 292 299 300 298 301 298
26 25 24 25 28 29 27 21 18 13 1 356 3 23 14 20 27 276 261 249 264 281 293 316 236 278 301 291 282 289 301 301 294 289 291 290 287 287 293 293 295 296 296
19 20 19 20 18 21 16 1 352 349 346 339 314 298 308 330 321 288 275 267 266 272 279 288 286 283 285 286 283 280 283 285 288 286 285 285 288 287 290 290 290 287 288
7 9 13 15 12 8 3 352 344 347 340 316 304 289 277 280 290 289 280 282 278 280 279 283 284 282 281 279 279 280 283 283 283 283 285 288 288 288 287 287 288 288 286
359 4 6 3 1 357 336 328 334 335 333 313 291 281 273 273 274 277 278 277 284 281 274 275 278 279 279 280 279 278 280 282 283 282 282 284 284 284 287 285 286 289 288
348 349 352 356 352 345 328 307 311 316 315 313 305 293 280 275 276 279 280 281 283 283 278 277 277 279 278 281 281 279 278 278 280 284 281 281 281 282 282 282 283 284 285
349 341 333 336 337 333 323 307 301 300 298 299 301 293 282 280 279 277 278 283 281 281 281 279 281 284 281 282 281 278 277 279 281 282 282 281 281 280 281 281 282 284 285
345 336 319 319 330 325 314 303 297 292 288 288 288 288 281 278 279 278 278 281 281 282 282 281 281 282 283 284 282 281 280 279 280 280 282 283 280 278 280 281 282 284 285
337 331 329 322 317 319 312 305 294 291 289 285 283 282 281 278 279 281 278 281 283 285 285 285 283 283 285 286 282 279 277 278 279 281 281 280 281 281 281 282 282 282 284
Height
5886 5885 5884 5884 5884 5884 5884 5884 5884 5884 5884 5884 5884 5885 5885 5885 5885 5885 5885 5884 5885 5885 5885 5885 5885 5885 5885 5885 5886 5886 5886 5886 5886 5886 5887 5887 5888 5889 5889 5890 5890 5891 5891
5887 5887 5886 5886 5885 5885 5885 5886 5886 5886 5886 5886 5886 5886 5887 5887 5886 5886 5887 5887 5887 5887 5887 5887 5887 5887 5887 5887 5887 5887 5887 5887 5888 5888 5888 5889 5889 5890 5890 5891 5891 5892 5892
5889 5888 5888 5887 5887 5887 5887 5887 5888 5888 5888 5888 5888 5888 5888 5888 5888 5888 5888 5888 5888 5888 5888 5889 5889 5888 5888 5888 5889 5888 5888 5889 5889 5889 5890 5890 5890 5891 5891 5892 5892 5893 5893
5890 5889 5889 5888 5888 5888 5888 5889 5889 5889 5889 5890 5890 5890 5890 5890 5890 5890 5890 5890 5890 5890 5890 5890 5890 5890 5890 5890 5890 5890 5890 5890 5890 5891 5891 5891 5892 5892 5892 5893 5893 5893 5894
5891 5890 5890 5890 5889 5890 5890 5890 5891 5891 5891 5891 5891 5891 5891 5891 5892 5892 5892 5891 5891 5891 5891 5891 5891 5891 5891 5891 5891 5891 5891 5892 5892 5892 5893 5893 5893 5894 5894 5894 5894 5894 5895
5892 5891 5891 5891 5891 5891 5891 5891 5892 5892 5892 5892 5893 5893 5893 5893 5893 5893 5893 5893 5893 5893 5893 5892 5892 5892 5892 5893 5893 5893 5893 5893 5893 5894 5894 5894 5895 5895 5895 5895 5895 5895 5896
5893 5893 5892 5892 5892 5892 5893 5893 5893 5893 5893 5893 5894 5894 5894 5894 5894 5894 5894 5894 5894 5894 5894 5894 5894 5894 5894 5894 5894 5894 5894 5894 5895 5895 5895 5895 5896 5896 5896 5896 5896 5896 5897
5895 5894 5893 5893 5893 5894 5894 5894 5894 5894 5894 5894 5895 5895 5895 5895 5895 5895 5895 5895 5895 5895 5895 5895 5895 5895 5895 5895 5895 5896 5896 5896 5896 5896 5896 5897 5897 5897 5897 5898 5898 5898 5898
5896 5895 5895 5894 5894 5895 5895 5895 5895 5895 5895 5895 5895 5896 5896 5896 5896 5896 5897 5896 5896 5896 5896 5896 5896 5896 5896 5896 5897 5897 5897 5897 5897 5897 5898 5898 5898 5898 5899 5899 5899 5899 5899
5897 5896 5896 5896 5896 5896 5896 5896 5896 5896 5896 5896 5897 5897 5897 5897 5897 5897 5898 5897 5897 5897 5897 5897 5897 5897 5897 5897 5897 5898 5898 5898 5898 5899 5899 5899 5899 5899 5900 5900 5900 5900 5900
5898 5897 5897 5897 5897 5897 5897 5897 5897 5897 5897 5897 5897 5898 5898 5898 5898 5898 5898 5898 5898 5898 5898 5898 5898 5898 5898 5898 5898 5899 5899 5899 5899 5900 5900 5900 5900 5900 5900 5901 5901 5901 5901
5899 5898 5898 5898 5898 5898 5898 5898 5898 5898 5898 5898 5898 5898 5899 5899 5899 5899 5899 5899 5899 5899 5899 5899 5899 5899 5899 5899 5900 5900 5900 5900 5900 5901 5901 5901 5901 5901 5901 5901 5901 5901 5901
5900 5899 5899 5899 5898 5898 5898 5898 5899 5899 5899 5899 5899 5899 5899 5900 5900 5900 5900 5900 5900 5900 5900 5900 5900 5900 5900 5900 5900 5901 5901 5901 5901 5901 5902 5901 5902 5902 5902 5902 5902 5902 5902
5901 5901 5900 5900 5899 5899 5899 5899 5899 5899 5899 5900 5900 5900 5900 5900 5901 5901 5901 5901 5901 5901 5901 5901 5901 5901 5901 5901 5901 5902 5902 5902 5902 5902 5902 5902 5902 5902 5902 5902 5902 5902 5902
5903 5902 5902 5901 5900 5900 5900 5900 5900 5900 5900 5900 5900 5900 5900 5901 5901 5901 5902 5902 5902 5902 5902 5902 5902 5902 5902 5902 5902 5902 5902 5902 5902 5902 5902 5902 5903 5903 5903 5903 5902 5902 5902
5905 5904 5903 5902 5902 5901 5901 5901 5901 5901 5900 5900 5900 5900 5901 5901 5902 5902 5902 5902 5902 5902 5902 5902 5902 5902 5902 5903 5903 5903 5903 5903 5903 5903 5903 5903 5903 5903 5903 5902 5902 5902 5902
5906 5905 5904 5904 5902 5902 5903 5902 5902 5901 5902 5901 5901 5901 5901 5902 5902 5902 5902 5903 5903 5903 5903 5903 5903 5903 5903 5903 5903 5903 5903 5903 5903 5903 5903 5903 5903 5903 5902 5902 5902 5902 5902
5908 5907 5906 5905 5904 5904 5904 5903 5903 5902 5902 5902 5902 5902 5901 5901 5902 5902 5902 5903 5903 5903 5903 5903 5903 5903 5903 5903 5903 5903 5903 5903 5903 5903 5903 5902 5902 5902 5902 5902 5901 5901 5901
5909 5908 5907 5906 5906 5905 5905 5904 5903 5903 5903 5902 5902 5902 5902 5902 5902 5902 5902 5903 5903 5903 5903 5903 5903 5903 5903 5903 5903 5903 5903 5902 5902 5902 5902 5902 5901 5901 5901 5901 5901 5900 5900
5910 5909 5908 5907 5906 5906 5905 5905 5904 5903 5903 5902 5902 5902 5902 5902 5902 5902 5902 5902 5902 5903 5903 5902 5902 5902 5902 5902 5902 5902 5902 5902 5901 5901 5901 5900 5900 5900 5900 5899 5899 5899 5898
5911 5910 5908 5907 5906 5906 5905 5905 5904 5903 5903 5902 5902 5902 5902 5902 5902 5902 5902 5902 5902 5902 5902 5902 5902 5901 5901 5901 5901 5901 5901 5901 5900 5900 5899 5899 5898 5898 5898 5898 5897 5897 5896
5910 5909 5908 5907 5906 5905 5905 5904 5903 5903 5902 5902 5901 5901 5901 5901 5901 5901 5902 5901 5901 5901 5901 5901 5900 5900 5900 5900 5899 5899 5899 5899 5898 5898 5897 5897 5897 5896 5896 5896 5895 5895 5894
5910 5909 5907 5906 5905 5905 5904 5903 5903 5902 5902 5901 5901 5900 5900 5900 5900 5900 5900 5900 5900 5900 5899 5899 5899 5898 5898 5898 5897 5897 5897 5897 5896 5896 5895 5895 5894 5894 5893 5893 5893 5892 5891
5908 5907 5906 5905 5904 5903 5903 5902 5902 5901 5901 5900 5900 5900 5899 5899 5899 5899 5899 5898 5898 5898 5897 5897 5897 5896 5896 5895 5895 5894 5894 5894 5893 5893 5893 5892 5891 5891 5890 5890 5889 5889 5888
5907 5906 5904 5903 5902 5902 5901 5901 5900 5900 5899 5899 5899 5899 5898 5898 5897 5897 5897 5896 5896 5895 5895 5895 5894 5894 5893 5893 5892 5891 5891 5891 5890 5890 5889 5889 5888 5887 5887 5886 5886 5885 5884
5906 5904 5902 5901 5900 5900 5900 5899 5899 5898 5897 5897 5897 5897 5896 5896 5895 5895 5894 5894 5893 5893 5892 5892 5891 5891 5890 5889 5888 5888 5887 5887 5887 5886 5885 5885 5884 5884 5883 5882 5882 5881 5880